Weather History for Clinton-Sherman, OK

Change the Weather History Date:

Wednesday, May 2, 2012

  Actual Average Record
Temperature  
Mean Temperature 80 °F -  
Max Temperature 93 °F 75 °F 95 °F (2002)
Min Temperature 66 °F 51 °F 35 °F (2013)
Cooling Degree Days 14    
Growing Degree Days 30 (Base 50)    
Moisture  
Dew Point 64 °F    
Average Humidity 64    
Maximum Humidity 87    
Minimum Humidity 36    
Precipitation  
Precipitation 0.00 in - - ()
Sea Level Pressure  
Sea Level Pressure 29.68 in    
Wind  
Wind Speed 22 mph (South)    
Max Wind Speed 26 mph    
Max Gust Speed 36 mph    
Visibility 10 miles    
Events      
Averages and records for this station are not official NWS values.
T = Trace of Precipitation, MM = Missing Value Source: NWS Daily Summary

Daily Weather History Graph

Daily Weather History Graph

Search for Another Location

Airport:

Trip Planner

Search our weather history database for the weather conditions in past years. The results will help you decide how hot, cold, wet, or windy it might be!

Date:

Astronomy

May. 02, 2012 Rise Set
Actual Time 6:43 AM CDT 8:24 PM CDT
Civil Twilight 6:16 AM CDT 8:51 PM CDT
Nautical Twilight 5:43 AM CDT 9:24 PM CDT
Astronomical Twilight 5:08 AM CDT 9:59 PM CDT
Moon 4:45 PM CDT (5/2) 4:06 AM CDT (5/2)
Length of Visible Light 14h 35m
Length of Day
13h 40m
Waxing Gibbous, 83% of the Moon is Illuminated
May 2
Waxing Gibbous
May 5
Full
May 12
Last Quarter
May 20
New
May 28
First Quarter

Hourly Weather History & Observations

Time (CDT) Temp. Heat Index Dew Point Humidity Pressure Visibility Wind Dir Wind Speed Gust Speed Precip Events Conditions
12:53 AM 73.9 °F - 61.0 °F 64% 29.67 in 10.0 mi South 21.9 mph 33.4 mph N/A   Clear
1:53 AM 72.0 °F - 62.1 °F 71% 29.67 in 10.0 mi South 23.0 mph 33.4 mph N/A   Clear
2:53 AM 70.0 °F - 62.1 °F 76% 29.65 in 10.0 mi South 19.6 mph 26.5 mph N/A   Clear
3:53 AM 69.1 °F - 62.1 °F 78% 29.66 in 10.0 mi South 18.4 mph 28.8 mph N/A   Clear
4:53 AM 68.0 °F - 63.0 °F 84% 29.65 in 10.0 mi South 18.4 mph 27.6 mph N/A   Clear
5:53 AM 66.9 °F - 63.0 °F 87% 29.67 in 10.0 mi South 17.3 mph 26.5 mph N/A   Clear
6:53 AM 66.9 °F - 63.0 °F 87% 29.68 in 10.0 mi South 19.6 mph 28.8 mph N/A   Clear
7:53 AM 68.0 °F - 64.0 °F 87% 29.70 in 10.0 mi South 19.6 mph 28.8 mph N/A   Clear
8:53 AM 71.1 °F - 64.0 °F 78% 29.71 in 10.0 mi South 23.0 mph 32.2 mph N/A   Clear
9:53 AM 75.0 °F - 64.9 °F 71% 29.72 in 10.0 mi South 25.3 mph 34.5 mph N/A   Clear
10:53 AM 78.1 °F - 64.9 °F 64% 29.72 in 10.0 mi South 26.5 mph 33.4 mph N/A   Clear
11:53 AM 82.0 °F 83.8 °F 64.9 °F 56% 29.73 in 10.0 mi South 20.7 mph 31.1 mph N/A   Clear
12:53 PM 84.9 °F 86.1 °F 64.0 °F 49% 29.72 in 10.0 mi South 20.7 mph 27.6 mph N/A   Clear
1:53 PM 88.0 °F 88.7 °F 63.0 °F 43% 29.70 in 10.0 mi South 21.9 mph 29.9 mph N/A   Clear
2:53 PM 90.0 °F 90.6 °F 63.0 °F 40% 29.68 in 10.0 mi South 24.2 mph 32.2 mph N/A   Clear
3:53 PM 93.0 °F 93.8 °F 62.1 °F 36% 29.67 in 10.0 mi South 20.7 mph 29.9 mph N/A   Clear
4:53 PM 93.0 °F 93.8 °F 62.1 °F 36% 29.65 in 10.0 mi SSE 21.9 mph 29.9 mph N/A   Clear
5:53 PM 90.0 °F 92.4 °F 66.0 °F 45% 29.65 in 10.0 mi SSE 23.0 mph 33.4 mph N/A   Clear
6:53 PM 87.1 °F 89.2 °F 66.0 °F 49% 29.65 in 10.0 mi SSE 24.2 mph 35.7 mph N/A   Clear
7:53 PM 82.9 °F 85.0 °F 66.0 °F 56% 29.65 in 10.0 mi SSE 21.9 mph 32.2 mph N/A   Clear
8:53 PM 79.0 °F - 66.0 °F 64% 29.68 in 10.0 mi SSE 21.9 mph 28.8 mph N/A   Clear
9:53 PM 77.0 °F - 66.0 °F 69% 29.70 in 10.0 mi SSE 21.9 mph 31.1 mph N/A   Clear
10:53 PM 75.0 °F - 66.0 °F 73% 29.71 in 10.0 mi SSE 21.9 mph 32.2 mph N/A   Clear
11:53 PM 73.9 °F - 66.0 °F 76% 29.72 in 10.0 mi SSE 26.5 mph 31.1 mph N/A   Clear